OE7SBH-WX Weather Reports


time (UTC)temp
C
wind
direction
speed
KPH
gust
KPH
rain 1hr
cm
rain 24hr
cm
rain mn
cm
humidity
%
barometer
mb
20260903055517 13 27 1.6 1.6 0.00 0.00 0.00 92 1029.9
20260903054527 13 358 0.0 1.6 0.00 0.00 0.00 93 1030.1
20260903053518 12 296 1.6 3.2 0.00 0.00 0.00 93 1030.1
20260903052539 12 0.0 0.0 0.00 0.00 0.00 94 1029.9
20260903051518 12 360 0.0 1.6 0.00 0.00 0.00 94 1029.8
20260903050527 13 23 0.0 3.2 0.00 0.00 0.00 92 1029.6
20260903045517 13 331 0.0 1.6 0.00 0.00 0.00 92 1029.6
20260903044527 13 336 0.0 3.2 0.00 0.00 0.00 94 1029.5
20260903043518 13 338 0.0 1.6 0.00 0.00 0.00 94 1029.5
20260903042527 13 54 1.6 3.2 0.00 0.00 0.00 94 1029.3
20260903041532 13 118 1.6 3.2 0.00 0.00 0.00 92 1029.4
20260903040527 13 329 0.0 1.6 0.00 0.00 0.00 91 1029.3
20260903035516 13 328 1.6 1.6 0.00 0.00 0.00 92 1029.3
20260903034600 13 339 1.6 3.2 0.00 0.00 0.00 91 1029.3
20260903033517 13 0.0 0.0 0.00 0.00 0.00 92 1029.2
20260903032559 13 191 0.0 1.6 0.00 0.00 0.00 92 1029.2
20260903031523 13 0.0 0.0 0.00 0.00 0.00 92 1029.2
20260903030517 13 190 0.0 1.6 0.00 0.00 0.00 92 1029.2
20260903025533 13 61 1.6 3.2 0.00 0.00 0.00 93 1029.2
20260903024517 14 0.0 0.0 0.00 0.00 0.00 90 1029.2
20260903023533 14 9 0.0 1.6 0.00 0.00 0.00 91 1029.4
20260903022517 14 10 0.0 1.6 0.00 0.00 0.00 91 1029.3
20260903021533 14 8 1.6 3.2 0.00 0.00 0.00 90 1029.1
20260903020548 14 337 1.6 3.2 0.00 0.00 0.00 90 1029.0
20260903015518 14 3 0.0 1.6 0.00 0.00 0.00 90 1028.9
20260903014527 15 0.0 0.0 0.00 0.00 0.00 90 1028.8
20260903013517 14 325 0.0 1.6 0.00 0.00 0.00 91 1028.9
20260903012547 15 323 0.0 1.6 0.00 0.00 0.00 89 1028.9
20260903011537 14 109 1.6 3.2 0.00 0.00 0.00 90 1028.9
20260903010523 15 77 1.6 3.2 0.00 0.00 0.00 89 1028.9
20260903005613 15 314 0.0 3.2 0.00 0.00 0.00 88 1028.7
20260903004518 15 337 3.2 4.8 0.00 0.00 0.00 89 1028.8
20260903003531 15 286 1.6 3.2 0.00 0.00 0.00 85 1028.7
20260903002517 15 329 0.0 3.2 0.00 0.00 0.00 87 1028.8
20260903001515 15 329 1.6 3.2 0.00 0.00 0.00 86 1028.7
20260903000537 15 325 3.2 4.8 0.00 0.00 0.00 85 1028.7
20260902235533 15 323 1.6 3.2 0.00 0.00 0.00 87 1028.7
20260902234537 16 304 0.0 3.2 0.00 0.00 0.00 86 1028.7
20260902233613 16 333 0.0 1.6 0.00 0.00 0.00 84 1028.7
20260902232517 16 0.0 0.0 0.00 0.00 0.00 84 1028.8
20260902231536 16 336 1.6 1.6 0.00 0.00 0.00 84 1028.8
20260902230517 16 333 0.0 3.2 0.00 0.00 0.00 83 1028.6
20260902225533 17 292 0.0 1.6 0.00 0.00 0.00 83 1028.6
20260902224517 17 292 0.0 1.6 0.00 0.00 0.00 80 1028.6
20260902223517 17 313 0.0 1.6 0.00 0.00 0.00 83 1028.7
20260902222528 17 314 0.0 1.6 0.00 0.00 0.00 80 1028.5
20260902221517 17 314 0.0 1.6 0.00 0.00 0.00 80 1028.5
20260902220519 17 322 1.6 3.2 0.00 0.00 0.00 81 1028.4
20260902215523 17 328 1.6 1.6 0.00 0.00 0.00 79 1028.4
20260902214517 17 330 1.6 1.6 0.00 0.00 0.00 79 1028.3
20260902213533 18 328 0.0 1.6 0.00 0.00 0.00 77 1028.1
20260902212537 18 336 1.6 3.2 0.00 0.00 0.00 78 1028.1
20260902211533 18 175 0.0 1.6 0.00 0.00 0.00 77 1028.1
20260902210523 18 176 1.6 3.2 0.00 0.00 0.00 78 1028.0
20260902205517 19 174 1.6 1.6 0.00 0.00 0.00 77 1027.8
20260902204519 19 158 1.6 3.2 0.00 0.00 0.00 76 1027.9
20260902203543 19 207 0.0 3.2 0.00 0.00 0.00 75 1027.9
20260902202517 19 0.0 0.0 0.00 0.00 0.00 75 1027.8
20260902201533 20 212 0.0 1.6 0.00 0.00 0.00 73 1027.9
20260902200517 20 187 1.6 3.2 0.00 0.00 0.00 74 1027.8
20260902195533 19 147 0.0 4.8 0.00 0.00 0.00 74 1027.8
20260902194517 19 85 1.6 1.6 0.00 0.00 0.00 74 1027.7
20260902193533 20 191 1.6 4.8 0.00 0.00 0.00 73 1027.6
20260902192517 20 118 1.6 3.2 0.00 0.00 0.00 72 1027.6
20260902191713 20 112 0.0 1.6 0.00 0.00 0.00 71 1027.6
20260902190517 20 86 1.6 4.8 0.00 0.00 0.00 69 1027.5
20260902185533 21 58 1.6 3.2 0.00 0.00 0.00 66 1027.2
20260902184517 21 353 1.6 4.8 0.00 0.00 0.00 64 1027.0
20260902183533 22 346 4.8 6.4 0.00 0.00 0.00 61 1026.8
20260902182518 22 330 6.4 9.7 0.00 0.00 0.00 60 1026.7
20260902181536 21 331 4.8 11.3 0.00 0.00 0.00 63 1026.5
20260902180517 22 331 1.6 3.2 0.00 0.00 0.00 60 1026.3
20260902175518 23 320 4.8 9.7 0.00 0.00 0.00 58 1026.2
20260902174523 23 318 8.0 16.1 0.00 0.00 0.00 57 1026.0
20260902173538 23 304 9.7 17.7 0.00 0.00 0.00 56 1026.0
20260902172531 23 322 9.7 16.1 0.00 0.00 0.00 58 1025.7
20260902171517 23 322 9.7 16.1 0.00 0.00 0.00 57 1025.7
20260902170524 23 320 8.0 16.1 0.00 0.00 0.00 58 1025.5
20260902165518 23 323 8.0 12.9 0.00 0.00 0.00 57 1025.3
20260902164527 23 335 6.4 11.3 0.00 0.00 0.00 57 1025.2
20260902163518 23 321 8.0 14.5 0.00 0.00 0.00 57 1025.2
20260902162527 24 330 8.0 14.5 0.00 0.00 0.00 56 1025.1
20260902161517 24 325 11.3 17.7 0.00 0.00 0.00 56 1025.1
20260902160520 25 329 11.3 16.1 0.00 0.00 0.00 55 1024.9
20260902155518 25 330 11.3 17.7 0.00 0.00 0.00 55 1025.0
20260902154527 25 324 8.0 16.1 0.00 0.00 0.00 54 1024.9
20260902153517 25 327 8.0 12.9 0.00 0.00 0.00 53 1024.8
20260902152633 25 328 9.7 20.9 0.00 0.00 0.00 53 1024.8
20260902151533 25 324 11.3 16.1 0.00 0.00 0.00 52 1024.9
20260902150517 26 320 9.7 14.5 0.00 0.00 0.00 52 1024.9
20260902145534 26 323 12.9 17.7 0.00 0.00 0.00 52 1024.9
20260902144517 26 322 12.9 20.9 0.00 0.00 0.00 52 1025.0
20260902143533 26 331 11.3 20.9 0.00 0.00 0.00 52 1025.0
20260902142517 26 328 12.9 24.1 0.00 0.00 0.00 52 1025.0
20260902141533 26 328 12.9 20.9 0.00 0.00 0.00 52 1025.0
20260902140525 26 323 14.5 27.4 0.00 0.00 0.00 52 1025.1
20260902135533 26 345 8.0 17.7 0.00 0.00 0.00 52 1025.1
20260902134517 26 335 8.0 22.5 0.00 0.00 0.00 52 1025.3
20260902133533 25 337 12.9 22.5 0.00 0.00 0.00 53 1025.2
20260902132518 25 325 11.3 22.5 0.00 0.00 0.00 53 1025.2
20260902131516 25 334 12.9 24.1 0.00 0.00 0.00 54 1025.4
20260902130517 25 338 11.3 24.1 0.00 0.00 0.00 56 1025.4
20260902125533 25 335 8.0 16.1 0.00 0.00 0.00 55 1025.4
20260902124517 25 344 12.9 22.5 0.00 0.00 0.00 55 1025.4
20260902123516 25 339 8.0 16.1 0.00 0.00 0.00 55 1025.6
20260902122518 25 324 6.4 12.9 0.00 0.00 0.00 55 1025.8
20260902121516 24 329 6.4 12.9 0.00 0.00 0.00 56 1025.9
20260902120517 24 339 8.0 14.5 0.00 0.00 0.00 56 1026.0
20260902115517 25 336 4.8 12.9 0.00 0.00 0.00 56 1026.3
20260902114528 24 335 3.2 9.7 0.00 0.00 0.00 60 1026.3
20260902113518 23 357 3.2 6.4 0.00 0.00 0.00 60 1026.4
20260902112528 23 330 6.4 9.7 0.00 0.00 0.00 59 1026.6
20260902111518 23 333 4.8 11.3 0.00 0.00 0.00 58 1026.7
20260902110524 23 6 3.2 6.4 0.00 0.00 0.00 59 1026.7
20260902105518 23 15 4.8 11.3 0.00 0.00 0.00 60 1027.0
20260902104527 23 326 3.2 4.8 0.00 0.00 0.00 59 1027.1
20260902103534 23 20 3.2 9.7 0.00 0.00 0.00 59 1027.2
20260902102538 22 17 1.6 6.4 0.00 0.00 0.00 62 1027.2
20260902101533 21 330 3.2 6.4 0.00 0.00 0.00 64 1027.6
20260902100518 21 353 3.2 9.7 0.00 0.00 0.00 64 1027.8
20260902095534 21 13 3.2 4.8 0.00 0.00 0.00 64 1027.8
20260902094518 22 322 1.6 4.8 0.00 0.00 0.00 65 1028.0
20260902093533 20 328 3.2 6.4 0.00 0.00 0.00 67 1028.1
20260902092517 21 79 1.6 4.8 0.00 0.00 0.00 64 1028.2
20260902091534 20 5 1.6 4.8 0.00 0.00 0.00 70 1028.3
20260902090518 20 38 1.6 3.2 0.00 0.00 0.00 68 1028.3
20260902085533 20 359 1.6 4.8 0.00 0.00 0.00 68 1028.4
20260902084518 20 15 1.6 3.2 0.00 0.00 0.00 68 1028.5
20260902083534 19 333 3.2 6.4 0.00 0.00 0.00 70 1028.5
20260902082517 20 11 1.6 6.4 0.00 0.00 0.00 71 1028.4
20260902081533 18 81 1.6 3.2 0.00 0.00 0.00 74 1028.6
20260902080518 18 29 3.2 6.4 0.00 0.00 0.00 78 1028.7
20260902075516 18 69 1.6 4.8 0.00 0.00 0.00 77 1028.8
20260902074518 17 50 1.6 4.8 0.00 0.00 0.00 80 1028.7
20260902073516 17 50 1.6 3.2 0.00 0.00 0.00 80 1028.8
20260902072518 17 68 1.6 3.2 0.00 0.00 0.00 81 1029.0
20260902071516 17 33 0.0 1.6 0.00 0.00 0.00 81 1028.9
20260902070538 16 85 1.6 3.2 0.00 0.00 0.00 83 1029.0
20260902065516 16 95 1.6 4.8 0.00 0.00 0.00 84 1029.0
20260902064518 15 26 0.0 1.6 0.00 0.00 0.00 85 1029.1
20260902063556 13 23 0.0 1.6 0.00 0.00 0.00 91 1029.2
20260902062517 13 52 1.6 3.2 0.00 0.00 0.00 90 1029.1
20260902061515 12 0.0 0.0 0.00 0.00 0.00 95 1028.9
20260902060517 12 0.0 0.0 0.00 0.00 0.00 95 1028.8